User: anonymous   Login
Location: Langangen
(59.1000°N, 9.8000°E)
Time: 15:11:01
(UTC+02:00)
Language:

Iridium 60 - Orbit

View from above orbital plane
View from above orbital plane
View from above satellite
View from above satellite

Ground track
Ground track

The orbit data is extracted from the following two-line orbital elements,

1 25276U 98019E   17264.88156833 -.00000022 +00000-0 -14948-4 0  9997
2 25276 086.3932 246.5326 0002252 083.3083 276.8369 14.34217190019710
Epoch (UTC): 21 September 2017 21:09:27
Eccentricity: 0.0002252
inclination: 86.3932°
perigee height: 776 km
apogee height: 779 km
right ascension of ascending node: 246.5326°
argument of perigee: 83.3083°
revolutions per day: 14.34217190
mean anomaly at epoch: 276.8369°
orbit number at epoch: 1971

The dashed part of the orbit path shows where the satellite is in the earth's shadow,  

DLR